Location: Unspecified
(0.0000°N, 0.0000°E)
Time: 08:46:49
(UTC+00:00)

deb NOAA 5 - Pass Details

Date: 16 February 2026
Orbit: 1470 x 1835 km, 102.5° (Epoch: 10 March)

Event Time Altitude Azimuth Distance (km) Brightness Sun altitude
Rises 20:45:01 0° 162° (SSE) 4,827 ? -36.8°
Reaches altitude 10° 20:47:58 10° 161° (SSE) 3,795 ? -37.5°
Enters shadow 20:50:10 20° 160° (SSE) 3,043 ? -38.0°
Exits shadow 21:06:42 - 346° (NNW) 4,131 ? -42.0°
Sets 21:07:56 0° 345° (NNW) 4,572 ? -42.3°
